Location: Dealu Mare
(46.0500°N, 22.8167°E)
Time: 09:34:38
(UTC+00:00)

BREEZE-M DEB (TANK) - Pass Details

Date: 15 January 2026
Orbit: 326 x 14637 km, 49.5° (Epoch: 10 February)

Event Time Altitude Azimuth Distance (km) Brightness Sun altitude
Exits shadow 04:02:13 43° 30° (NNE) 580 3.5 -21.1°
Drops below altitude 10° 04:05:40 10° 87° (E) 2,097 7.4 -20.5°
Sets 04:09:27 0° 93° (E) 3,971 9.3 -19.9°
